Bartlesville, OK

7:57 AM CDT on March 27, 2017 (GMT -0500)
Bartlesville Municipal

Weather History for KBVO - September, 2013

Change the Weather History Date:

Friday, September 20, 2013

  Actual Average Record
Temperature  
Mean Temperature 63 °F -  
Max Temperature 71 °F 83 °F 102 °F (1954)
Min Temperature 54 °F 59 °F 38 °F (1971)
Degree Days  
Heating Degree Days 2    
Growing Degree Days 13 (Base 50)    
Moisture  
Dew Point 61 °F    
Average Humidity 87    
Maximum Humidity 100    
Minimum Humidity 59    
Precipitation  
Precipitation 0.04 in - - ()
Sea Level Pressure  
Sea Level Pressure 29.99 in    
Wind  
Wind Speed 4 mph (North)    
Max Wind Speed 14 mph    
Max Gust Speed 21 mph    
Visibility 9 miles    
Events Rain    
Averages and records for this station are not official NWS values.
T = Trace of Precipitation, MM = Missing Value Source: NWS Daily Summary

Daily Weather History Graph

Daily Weather History Graph

Search for Another Location

Airport or City:

Trip Planner

Search our weather history database for the weather conditions in past years. The results will help you decide how hot, cold, wet, or windy it might be!

Date:

Astronomy

Sep. 20, 2013 Rise Set
Actual Time 7:10 AM CDT 7:23 PM CDT
Civil Twilight 6:44 AM CDT 7:49 PM CDT
Nautical Twilight 6:14 AM CDT 8:19 PM CDT
Astronomical Twilight 5:43 AM CDT 8:50 PM CDT
Moon 8:01 PM CDT (9/20) 8:23 AM CDT (9/20)
Length of Visible Light 13h 04m
Length of Day
12h 13m
Full, 98% of the Moon is Illuminated
Sep 20
Full
Sep 26
Last Quarter
Oct 4
New
Oct 11
First Quarter
Oct 18
Full

Hourly Weather History & Observations

Time (CDT) Temp. Dew Point Humidity Pressure Visibility Wind Dir Wind Speed Gust Speed Precip Events Conditions
12:53 AM 68.0 °F 66.9 °F 96% 29.93 in 10.0 mi Calm Calm - N/A   Scattered Clouds
1:53 AM 68.0 °F 66.9 °F 96% 29.95 in 10.0 mi Calm Calm - N/A   Mostly Cloudy
2:53 AM 68.0 °F 68.0 °F 100% 29.96 in 10.0 mi Calm Calm - N/A   Partly Cloudy
3:53 AM 68.0 °F 66.9 °F 96% 29.95 in 10.0 mi Calm Calm - N/A   Scattered Clouds
4:26 AM 68.0 °F 66.2 °F 94% 29.98 in 10.0 mi Calm Calm - N/A   Mostly Cloudy
4:53 AM 68.0 °F 68.0 °F 100% 29.95 in 9.0 mi Calm Calm - 0.01 in Rain Light Rain
5:53 AM 68.0 °F 66.9 °F 96% 29.96 in 10.0 mi Calm Calm - 0.00 in   Overcast
6:39 AM 68.0 °F 66.2 °F 94% 29.99 in 5.0 mi Variable 4.6 mph - N/A   Overcast
6:51 AM 68.0 °F 66.2 °F 94% 29.98 in 5.0 mi NNE 10.4 mph - 0.01 in   Overcast
6:53 AM 68.0 °F 66.9 °F 96% 29.96 in 6.0 mi NNE 12.7 mph - 0.01 in   Overcast
7:02 AM 66.2 °F 66.2 °F 100% 30.00 in 10.0 mi North 10.4 mph - N/A   Overcast
7:37 AM 62.6 °F 60.8 °F 94% 30.03 in 9.0 mi North 8.1 mph 16.1 mph 0.00 in Rain Light Rain
7:53 AM 62.1 °F 61.0 °F 96% 30.01 in 5.0 mi North 8.1 mph - 0.02 in Rain Light Rain
8:53 AM 62.1 °F 60.1 °F 93% 30.01 in 10.0 mi North 3.5 mph - 0.00 in   Overcast
9:06 AM 62.6 °F 60.8 °F 94% 30.04 in 10.0 mi Variable 3.5 mph - 0.00 in Rain Light Rain
9:53 AM 63.0 °F 60.1 °F 90% 30.01 in 10.0 mi North 4.6 mph - 0.00 in   Overcast
10:53 AM 64.0 °F 57.9 °F 80% 30.02 in 10.0 mi North 10.4 mph 17.3 mph N/A   Scattered Clouds
11:53 AM 64.9 °F 55.9 °F 73% 30.03 in 10.0 mi North 13.8 mph 20.7 mph N/A   Clear
12:53 PM 66.9 °F 55.9 °F 68% 30.03 in 10.0 mi NNE 12.7 mph - N/A   Clear
1:53 PM 69.1 °F 55.9 °F 63% 30.01 in 10.0 mi NNE 11.5 mph - N/A   Clear
2:53 PM 70.0 °F 55.0 °F 59% 29.99 in 10.0 mi North 10.4 mph - N/A   Clear
3:53 PM 71.1 °F 55.9 °F 59% 29.98 in 10.0 mi North 11.5 mph - N/A   Clear
4:53 PM 70.0 °F 55.0 °F 59% 29.97 in 10.0 mi North 6.9 mph - N/A   Clear
5:53 PM 68.0 °F 55.9 °F 65% 29.96 in 10.0 mi Variable 4.6 mph - N/A   Clear
6:53 PM 64.9 °F 61.0 °F 87% 29.97 in 10.0 mi Calm Calm - N/A   Clear
7:53 PM 61.0 °F 57.9 °F 90% 29.98 in 10.0 mi Calm Calm - N/A   Clear
8:53 PM 59.0 °F 57.0 °F 93% 29.99 in 10.0 mi Calm Calm - N/A   Clear
9:53 PM 57.0 °F 55.9 °F 96% 30.00 in 10.0 mi Calm Calm - N/A   Clear
10:53 PM 55.0 °F 54.0 °F 96% 30.01 in 10.0 mi Calm Calm - N/A   Clear
11:53 PM 54.0 °F 53.1 °F 97% 30.00 in 10.0 mi Calm Calm - N/A   Clear